Location: Bowman Observatory
(41.0326°N, 73.6210°W)
Time: 21:57:40
(UTC-05:00)

Cosmos 2297 - Visible Passes

Search period start: 23 January 2017 00:00
Search period end: 02 February 2017 00:00
Orbit: 837 x 858 km, 71.0° (Epoch: 22 January)

Date Brightness Start Highest point End Pass type
(mag) Time Alt. Az. Time Alt. Az. Time Alt. Az.
23 Jan 4.0 17:29:44 10° NNW 17:35:16 48° ENE 17:40:45 10° SE visible
23 Jan 5.9 19:14:34 10° NW 19:19:04 24° WSW 19:23:35 10° SSW visible
24 Jan 7.0 06:41:33 10° ESE 06:43:54 13° E 06:46:16 10° ENE visible
24 Jan 6.0 19:01:12 10° NW 19:05:46 25° WSW 19:10:19 10° SSW visible
25 Jan 7.0 06:28:22 10° ESE 06:30:36 12° E 06:32:48 10° ENE visible
25 Jan 6.0 18:47:50 10° NW 18:52:26 26° WSW 18:57:02 10° SSW visible
26 Jan 7.1 06:15:13 10° ESE 06:17:17 12° E 06:19:21 10° ENE visible
26 Jan 6.0 18:34:29 10° NW 18:39:07 26° WSW 18:43:46 10° SSW visible
27 Jan 7.2 06:02:03 10° ESE 06:03:58 12° E 06:05:53 10° ENE visible
27 Jan 6.1 18:21:07 10° NW 18:25:49 27° WSW 18:30:29 10° SSW visible
28 Jan 7.2 05:48:55 10° ESE 05:50:39 11° E 05:52:24 10° ENE visible
28 Jan 6.1 18:07:46 10° NW 18:12:29 27° WSW 18:17:13 10° SSW visible
29 Jan 7.2 05:35:48 10° ESE 05:37:21 11° E 05:38:54 10° E visible
29 Jan 6.1 17:54:24 10° NW 17:59:10 28° WSW 18:03:56 10° SSW visible
30 Jan 7.3 05:22:43 10° ESE 05:24:02 11° E 05:25:21 10° E visible
30 Jan 6.1 17:41:03 10° NW 17:45:51 28° WSW 17:50:39 10° SSW visible
31 Jan 7.2 05:09:41 10° ESE 05:10:43 10° E 05:11:45 10° E visible
31 Jan 6.2 17:27:41 10° NW 17:32:32 29° WSW 17:37:22 10° SSW visible
01 Feb 7.2 04:56:46 10° ESE 04:57:25 10° E 04:58:03 10° E visible
01 Feb 3.9 06:34:58 10° SSW 06:40:36 84° ESE 06:46:18 10° NNE visible
